This is the latest recevied weather packets stored in our database for station/object KC5TIL. If no packets are shown the sender has not sent any weather packets the latest 10 day(s).
| Time | Temp. | Humidity | Pressure | Rain* | Wind** | Luminosity | Snow |
|---|---|---|---|---|---|---|---|
| 1777936491 | 26.67° C | 63% | 1007.1 hPa | 0 mm | - | 152 W/m² | - |
| 1777936187 | 26.67° C | 63% | 1007.2 hPa | 0 mm | - | 155 W/m² | - |
| 1777935884 | 27.22° C | 62% | 1007.1 hPa | 0 mm | - | 153 W/m² | - |
| 1777935583 | 27.22° C | 61% | 1007 hPa | 0 mm | - | 234 W/m² | - |
| 1777935279 | 26.67° C | 61% | 1007.2 hPa | 0 mm | - | 270 W/m² | - |
| 1777934977 | 26.67° C | 61% | 1007.1 hPa | 0 mm | - | 161 W/m² | - |
| 1777934673 | 27.22° C | 60% | 1007.4 hPa | 0 mm | - | 150 W/m² | - |
| 1777934370 | 27.22° C | 61% | 1007.5 hPa | 0 mm | - | 322 W/m² | - |
| 1777934066 | 27.78° C | 60% | 1007.2 hPa | 0 mm | - | 252 W/m² | - |
| 1777933762 | 27.22° C | 61% | 1007.4 hPa | 0 mm | - | 317 W/m² | - |
| 1777933460 | 27.22° C | 60% | 1007.4 hPa | 0 mm | - | 285 W/m² | - |
| 1777933157 | 27.78° C | 59% | 1007.4 hPa | 0 mm | - | 230 W/m² | - |
| 1777932854 | 27.78° C | 58% | 1007.4 hPa | 0 mm | - | 254 W/m² | - |
| 1777932551 | 27.78° C | 59% | 1007.3 hPa | 0 mm | - | 301 W/m² | - |
| 1777932248 | 27.78° C | 59% | 1007.7 hPa | 0 mm | - | 328 W/m² | - |
| 1777931945 | 27.22° C | 60% | 1007.5 hPa | 0 mm | - | 316 W/m² | - |
| 1777931641 | 27.22° C | 60% | 1007.7 hPa | 0 mm | - | 247 W/m² | - |
| 1777931337 | 27.78° C | 59% | 1007.6 hPa | 0 mm | - | 275 W/m² | - |
| 1777931034 | 28.33° C | 58% | 1007.7 hPa | 0 mm | - | 323 W/m² | - |
| 1777930731 | 28.33° C | 57% | 1007.8 hPa | 0 mm | - | 498 W/m² | - |
| 1777930427 | 28.33° C | 57% | 1007.9 hPa | 0 mm | - | 399 W/m² | - |
| 1777930124 | 28.33° C | 57% | 1007.8 hPa | 0 mm | - | 474 W/m² | - |
| 1777929820 | 28.89° C | 57% | 1007.8 hPa | 0 mm | - | 581 W/m² | - |
| 1777929518 | 28.89° C | 57% | 1008.1 hPa | 0 mm | - | 471 W/m² | - |
| 1777929214 | 28.89° C | 56% | 1008.3 hPa | 0 mm | - | 614 W/m² | - |
* Rain latest hour (hover to see other rain measurements)
** Current wind speed in m/s (hover to see current wind gust speed)